Location: Newark
(59.4564°N, 26.6917°E)
Time: 18:31:23
(UTC+00:00)

SR - Pass Details

Date: 24 November 2019
Orbit: 573 x 882 km, 66.7° (Epoch: 12 December)

Event Time Altitude Azimuth Distance (km) Brightness Sun altitude
Rises 19:57:52 0° 312° (NW) 3,481 ? -45.5°
Reaches altitude 10° 20:00:26 10° 307° (NW) 2,550 ? -45.7°
Enters shadow 20:01:11 14° 305° (NW) 2,288 ? -45.8°
Maximum altitude 20:06:07 48° 235° (SW) 1,134 - -46.2°
Drops below altitude 10° 20:11:42 10° 162° (SSE) 2,494 - -46.6°
Sets 20:14:11 0° 157° (SSE) 3,398 - -46.8°
